Regional Weather Roundup
Issued by NWS

Home | Current Version | Previous Version | Graphics & Text | Print | Product List | Glossary On
Versions: 1 2 3 4 5 6 7 8 9 10 11 12 13 14 15 16 17 18 19 20 21 22 23 24 25 26 27 28 29 30 31 32 33 34 35 36 37 38 39 40 41 42 43 44 45 46 47 48 49 50
000
ASUS43 KMKX 022221
RWRWI

WISCONSIN REGIONAL WEATHER ROUNDUP
NATIONAL WEATHER SERVICE MILWAUKEE/SULLIVAN WI
500 PM CDT TUE SEP 02 2014

NOTE: "FAIR" INDICATES FEW OR NO CLOUDS BELOW 12,000 FEET WITH NO
SIGNIFICANT WEATHER AND/OR OBSTRUCTIONS TO VISIBILITY.

WIZ001-002-006>008-014>016-023>028-022300-
NORTHWEST WISCONSIN

CITY           SKY/WX    TMP DP  RH WIND       PRES   REMARKS
SUPERIOR ARPT  MOSUNNY   76  52  42 SW13G18   29.79S
ASHLAND        MOSUNNY   74  53  48 SW9G18    29.82S
HAYWARD        MOSUNNY   74  49  41 SW13      29.86S
SIREN          SUNNY     75  48  37 W12       29.86S
RICE LAKE      SUNNY     74  51  45 SW7       29.89S
LADYSMITH      MOSUNNY   72  53  52 SW7       29.90S
EAU CLAIRE     SUNNY     77  51  40 W13       29.88S
MENOMONIE      CLEAR     78  48  34 SW12      29.89S
NEW RICHMOND   SUNNY     76  50  40 SW9       29.89S
OSCEOLA        SUNNY     76  49  39 SW12      29.90S
$$

WIZ003>005-009-010-017-018-022300-
NORTH CENTRAL WISCONSIN

CITY           SKY/WX    TMP DP  RH WIND       PRES   REMARKS
WOODRUFF       SUNNY     72  46  38 W8        29.88S
RHINELANDER    SUNNY     73  50  44 W6        29.89S
EAGLE RIVER    MOSUNNY   72  44  37 W6        29.87S
LAND O LAKES   MOSUNNY   72  47  40 SW6       29.87S
PHILLIPS       SUNNY     72  49  45 W6        29.88S
TOMAHAWK       MOSUNNY   71  51  48 CALM      29.89S
MEDFORD        SUNNY     72  51  48 W8        29.90S
MERRILL        MOSUNNY   74  52  46 W6        29.88S
$$

WIZ029-030-035-036-043>047-022300-
CENTRAL WISCONSIN

CITY           SKY/WX    TMP DP  RH WIND       PRES   REMARKS
WAUSAU         MOSUNNY   75  54  47 W10       29.88R
MOSINEE        MOSUNNY   72  55  56 W10G18    29.90R
MARSHFIELD     MOSUNNY   76  56  49 W10       29.90R
STEVENS POINT  MOSUNNY   71  60  67 SW12      29.90S
WAUPACA        MOSUNNY   78  56  46 W10       29.89S
WAUTOMA        LGT RAIN  78  57  48 W10       29.90R
WISC RAPIDS    MOSUNNY   76  55  48 W8        29.91R
CAMP DOUGLAS   MOSUNNY   77  61  57 W13       29.90F
$$

WIZ011>013-019>022-031-037>040-048>050-022300-
NORTHEAST WISCONSIN

CITY           SKY/WX    TMP DP  RH WIND       PRES   REMARKS
ANTIGO         MOSUNNY   73  54  51 W7        29.89R
STURGEON BAY   MOSUNNY   73  59  60 W9G17     29.87S
GREEN BAY      MOSUNNY   77  60  55 W9        29.87R
MANITOWOC      SUNNY     77  58  51 W9        29.88R
APPLETON       PTSUNNY   75  54  46 W12       29.89S
CLINTONVILLE   MOSUNNY   77  55  47 W9        29.87S
OSHKOSH        SUNNY     76  57  51 W8        29.88S
$$

WIZ032>034-041-042-053>061-022300-
SOUTHWEST WISCONSIN

CITY           SKY/WX    TMP DP  RH WIND       PRES   REMARKS
LA CROSSE      MOSUNNY   80  59  48 W10       29.89S HX  81
SPARTA         MOSUNNY   77  55  46 W10       29.91S
VIROQUA        FAIR      76  57  51 SW8       29.93S
BOSCOBEL       MOSUNNY   80  55  42 W7        29.91F HX  80
PRAIRIE DU CHI SUNNY     78  53  41 W7        29.91S
PLATTEVILLE    FAIR      76  59  53 CALM      29.94S
$$

WIZ056-057-062-063-064-067-068-022300-
SOUTH CENTRAL WISCONSIN

CITY           SKY/WX    TMP DP  RH WIND       PRES   REMARKS
BARABOO/DELLS  MOSUNNY   78  53  42 W7        29.91S
LONE ROCK      SUNNY     81  57  43 W9        29.91S HX  81
WATERTOWN      SUNNY     77  56  48 W7        29.90S
MADISON        MOSUNNY   78  56  46 VRB5      29.91S
MIDDLETON      FAIR      78  53  42 W7        29.92S
MONROE         MOSUNNY   77  59  53 W12       29.92S
JANESVILLE     MOSUNNY   81  57  44 NW13      29.90S HX  81
$$

WIZ051-052-058>065-066-070>072-022300-
SOUTHEAST WISCONSIN

CITY           SKY/WX    TMP DP  RH WIND       PRES   REMARKS
MILWAUKEE      MOSUNNY   79  53  40 W14       29.89F
WAUKESHA       PTSUNNY   73  57  56 W10       29.92S
MILWAUKEE/TIMM MOSUNNY   77  55  47 SW9       29.90S
RACINE         MOSUNNY   78  58  49 NW9       29.91S
BURLINGTON     MOSUNNY   76  58  53 W6        29.90F
KENOSHA        MOSUNNY   78  59  51 W8        29.91S
FOND DU LAC    SUNNY     77  55  46 W9        29.89S
SHEBOYGAN      MOSUNNY   73  62  68 W5        29.89S
WEST BEND      CLOUDY    72  55  56 W6        29.90S
JUNEAU         SUNNY     75  57  52 W9        29.92S
$$

LSZ147-162-022300-
LAKE SUPERIOR

STATION/POSITION TIME  TEMP    WIND        PRES    WAVE
                       AIR SEA DIR/SP/G            HT/PER
                 (UTC) (F)     (DEG/KT/KT) (MB)    (FT/S)
W MID LAKE BUOY  2150   62 58  220/ 10/ 12 1008.5S   2/ 4
DEVILS ISLAND    2200   67     220/  9/ 13 1008.9R
PORT WING        2100   76     240/ 12/ 19 1009.1F
SAXON HARBOR     2100   76     210/  7/ 11 1009.8
$$

LMZ867-665-643>646-022300-
LAKE MICHIGAN

STATION/POSITION TIME  TEMP    WIND        PRES    WAVE
                       AIR SEA DIR/SP/G            HT/PER
                 (UTC) (F)     (DEG/KT/KT) (MB)    (FT/S)
N MID LAKE BUOY  2150   66 65  220/ 12/ 14 1010.3R   2/ 3
NORTHPORT PIER   2100   74     240/  7/ 12 1010.5S
SISTER BAY       1956   75     220/ 12/ 15   N/A
KEWAUNEE LAKESHO 2200          310/  7/ 12 1010.3F
SHEBOYGAN LAKESH 2200   71 49  210/  5/  6 1012.1R
ATWATER BUOY     2200   72     120/  8/ 10 1013.2F
MILWAUKEE LAKESH 2200   72      50/  6/  8   N/A
S MID LAKE BUOY  2150   73 73  180/  4/  4 1012.5S   0
KENOSHA   LAKESH 2200   78     280/  6/ 13 1011.9F
$$

TC  - TEMPERATURE IN CELSIUS
VSB - VISIBILITY IN STATUTE MILES
WCI - WIND CHILL INDEX
HX  - HEAT INDEX



USA.gov is the U.S. government's official web portal to all federal, state and local government web resources and services.